TimeCDT,TemperatureF,Dew PointF,Humidity,Sea Level PressureIn,VisibilityMPH,Wind Direction,Wind SpeedMPH,Gust SpeedMPH,PrecipitationIn,Events,Conditions,WindDirDegrees,DateUTC
12:15 AM,41.0,34.7,78,29.70,10.0,NE,11.5,16.1,N/A,,Clear,50,2013-03-22 05:15:00
12:35 AM,41.0,34.3,77,29.71,10.0,NE,13.8,-,N/A,,Mostly Cloudy,40,2013-03-22 05:35:00
12:55 AM,39.9,33.1,77,29.72,10.0,NNE,15.0,18.4,N/A,,Overcast,30,2013-03-22 05:55:00
1:15 AM,39.2,32.4,76,29.74,10.0,NNE,12.7,17.3,N/A,,Overcast,30,2013-03-22 06:15:00
1:35 AM,38.5,32.0,78,29.79,10.0,NNE,16.1,21.9,N/A,,Overcast,20,2013-03-22 06:35:00
1:55 AM,37.2,32.0,81,29.80,7.0,North,17.3,26.5,N/A,,Overcast,10,2013-03-22 06:55:00
2:15 AM,36.0,32.4,87,29.82,4.0,NNE,18.4,26.5,N/A,,Overcast,20,2013-03-22 07:15:00
2:35 AM,36.0,32.4,87,29.82,7.0,NNE,17.3,25.3,N/A,,Overcast,20,2013-03-22 07:35:00
2:55 AM,35.8,32.7,89,29.83,5.0,NNE,17.3,26.5,N/A,,Overcast,20,2013-03-22 07:55:00
3:15 AM,35.6,32.0,87,29.84,7.0,NNE,18.4,24.2,N/A,,Overcast,20,2013-03-22 08:15:00
3:35 AM,35.6,32.0,87,29.82,10.0,NE,10.4,-,N/A,,Overcast,50,2013-03-22 08:35:00
3:55 AM,35.6,33.1,91,29.83,5.0,NNE,6.9,-,N/A,,Light Drizzle,30,2013-03-22 08:55:00
4:15 AM,35.8,34.0,93,29.84,7.0,NNE,11.5,-,N/A,,Overcast,30,2013-03-22 09:15:00
4:35 AM,36.1,33.3,89,29.83,10.0,NE,8.1,-,N/A,,Overcast,50,2013-03-22 09:35:00
4:55 AM,36.5,33.3,88,29.82,10.0,NE,8.1,-,N/A,,Overcast,50,2013-03-22 09:55:00
5:15 AM,36.7,33.1,87,29.83,10.0,NE,8.1,-,N/A,,Overcast,50,2013-03-22 10:15:00
5:35 AM,36.9,32.9,86,29.83,10.0,NE,9.2,-,N/A,,Overcast,40,2013-03-22 10:35:00
5:55 AM,36.9,32.7,85,29.83,10.0,NE,9.2,-,N/A,,Overcast,40,2013-03-22 10:55:00
6:15 AM,36.5,32.2,84,29.82,10.0,NNE,11.5,-,N/A,,Overcast,30,2013-03-22 11:15:00
6:35 AM,35.8,32.0,86,29.84,10.0,NNE,5.8,-,N/A,,Mostly Cloudy,20,2013-03-22 11:35:00
6:55 AM,35.1,31.6,87,29.84,10.0,North,6.9,-,N/A,,Scattered Clouds,10,2013-03-22 11:55:00
7:15 AM,34.7,31.6,89,29.83,10.0,NNE,9.2,-,N/A,,Clear,20,2013-03-22 12:15:00
7:35 AM,33.8,31.1,90,29.84,10.0,North,3.5,-,N/A,,Clear,10,2013-03-22 12:35:00
7:55 AM,33.4,30.6,89,29.85,10.0,North,4.6,-,N/A,,Clear,10,2013-03-22 12:55:00
8:15 AM,32.9,30.2,90,29.87,10.0,NNW,5.8,-,N/A,,Clear,340,2013-03-22 13:15:00
8:35 AM,34.2,30.9,88,29.87,10.0,North,8.1,-,N/A,,Clear,360,2013-03-22 13:35:00
8:55 AM,34.7,31.1,87,29.87,10.0,NNE,12.7,-,N/A,,Clear,20,2013-03-22 13:55:00
9:15 AM,34.7,31.1,87,29.88,10.0,NNE,8.1,-,N/A,,Scattered Clouds,30,2013-03-22 14:15:00
9:35 AM,36.7,31.6,82,29.89,10.0,NNE,8.1,-,N/A,,Scattered Clouds,30,2013-03-22 14:35:00
9:55 AM,36.5,31.1,81,29.90,10.0,NNE,8.1,-,N/A,,Clear,30,2013-03-22 14:55:00
10:15 AM,37.4,31.1,78,29.90,10.0,NNE,9.2,-,N/A,,Clear,30,2013-03-22 15:15:00
10:35 AM,39.2,31.5,74,29.91,10.0,North,6.9,-,N/A,,Clear,10,2013-03-22 15:35:00
10:55 AM,39.4,30.7,71,29.92,10.0,North,5.8,-,N/A,,Clear,10,2013-03-22 15:55:00
11:15 AM,40.3,30.9,69,29.92,10.0,NE,3.5,-,N/A,,Clear,40,2013-03-22 16:15:00
11:35 AM,41.9,31.1,66,29.93,10.0,Calm,Calm,-,N/A,,Clear,0,2013-03-22 16:35:00
11:55 AM,42.6,31.1,64,29.92,10.0,NNW,6.9,-,N/A,,Clear,340,2013-03-22 16:55:00
12:15 PM,43.3,31.3,62,29.91,10.0,North,4.6,-,N/A,,Clear,350,2013-03-22 17:15:00
12:55 PM,46.4,32.0,57,29.90,10.0,SE,3.5,-,N/A,,Clear,140,2013-03-22 17:55:00
1:15 PM,48.6,32.4,54,29.89,10.0,East,4.6,-,N/A,,Clear,100,2013-03-22 18:15:00
1:35 PM,49.5,32.9,53,29.88,10.0,Calm,Calm,-,N/A,,Clear,0,2013-03-22 18:35:00
1:55 PM,50.4,32.4,50,29.87,10.0,ENE,5.8,-,N/A,,Clear,60,2013-03-22 18:55:00
2:15 PM,51.1,32.2,48,29.85,10.0,Calm,Calm,-,N/A,,Clear,0,2013-03-22 19:15:00
2:35 PM,51.3,32.0,48,29.84,10.0,North,6.9,-,N/A,,Clear,10,2013-03-22 19:35:00
2:55 PM,52.2,32.0,46,29.83,10.0,North,4.6,-,N/A,,Clear,10,2013-03-22 19:55:00
3:15 PM,52.9,32.0,45,29.81,10.0,NE,3.5,-,N/A,,Clear,50,2013-03-22 20:15:00
3:35 PM,53.6,31.5,43,29.81,10.0,Calm,Calm,-,N/A,,Clear,0,2013-03-22 20:35:00
3:55 PM,55.4,32.0,41,29.80,10.0,SE,8.1,-,N/A,,Clear,130,2013-03-22 20:55:00
4:15 PM,55.4,31.5,40,29.79,10.0,ESE,5.8,-,N/A,,Clear,110,2013-03-22 21:15:00
4:35 PM,55.0,31.6,41,29.78,10.0,East,4.6,-,N/A,,Clear,90,2013-03-22 21:35:00
4:55 PM,55.4,31.5,40,29.77,10.0,East,5.8,-,N/A,,Clear,90,2013-03-22 21:55:00
5:15 PM,56.7,32.0,39,29.77,10.0,ENE,3.5,-,N/A,,Clear,70,2013-03-22 22:15:00
5:35 PM,56.7,32.0,39,29.77,10.0,East,8.1,-,N/A,,Clear,100,2013-03-22 22:35:00
5:55 PM,56.3,32.0,40,29.77,10.0,ESE,4.6,-,N/A,,Clear,120,2013-03-22 22:55:00
6:15 PM,55.9,32.0,40,29.77,10.0,ESE,8.1,-,N/A,,Clear,110,2013-03-22 23:15:00
6:35 PM,55.6,32.0,41,29.76,10.0,East,9.2,-,N/A,,Clear,100,2013-03-22 23:35:00
6:55 PM,54.9,32.7,43,29.77,10.0,ESE,9.2,-,N/A,,Clear,110,2013-03-22 23:55:00
7:15 PM,53.6,32.4,44,29.77,10.0,ESE,8.1,-,N/A,,Clear,120,2013-03-23 00:15:00
7:35 PM,52.5,32.5,47,29.79,10.0,ESE,6.9,-,N/A,,Clear,110,2013-03-23 00:35:00
7:55 PM,50.7,33.1,51,29.79,10.0,ESE,5.8,-,N/A,,Clear,120,2013-03-23 00:55:00
8:15 PM,49.5,34.0,55,29.80,10.0,SE,6.9,-,N/A,,Clear,130,2013-03-23 01:15:00
8:35 PM,48.7,34.2,57,29.80,10.0,SE,9.2,-,N/A,,Clear,130,2013-03-23 01:35:00
8:55 PM,47.8,34.9,61,29.81,10.0,SE,9.2,-,N/A,,Clear,130,2013-03-23 01:55:00
9:15 PM,47.3,34.7,62,29.81,10.0,SE,10.4,-,N/A,,Clear,130,2013-03-23 02:15:00
9:35 PM,45.3,34.7,66,29.82,10.0,SE,10.4,-,N/A,,Clear,130,2013-03-23 02:35:00
9:55 PM,44.6,34.7,68,29.81,10.0,SE,13.8,-,N/A,,Unknown,130,2013-03-23 02:55:00
10:15 PM,43.7,34.7,71,29.81,10.0,SE,15.0,-,N/A,,Unknown,130,2013-03-23 03:15:00
10:35 PM,42.3,34.7,75,29.82,10.0,SE,12.7,-,N/A,,Clear,130,2013-03-23 03:35:00
10:55 PM,41.9,34.7,76,29.82,10.0,ESE,9.2,-,N/A,,Clear,120,2013-03-23 03:55:00
11:15 PM,41.5,34.7,77,29.82,10.0,ESE,10.4,-,N/A,,Clear,120,2013-03-23 04:15:00
11:35 PM,41.4,34.9,78,29.82,10.0,SE,15.0,-,N/A,,Clear,130,2013-03-23 04:35:00
11:55 PM,41.0,34.7,78,29.81,10.0,SE,9.2,-,N/A,,Clear,130,2013-03-23 04:55:00